Ely, NV

6:10 PM PST on November 24, 2017 (GMT -0800)
Ely

Weather History for KELY - May, 2014

Change the Weather History Date:

Friday, May 2, 2014

  Actual Average Record
Temperature  
Mean Temperature 54 °F 47 °F  
Max Temperature 77 °F 63 °F 83 °F (1947)
Min Temperature 30 °F 31 °F 11 °F (1953)
Degree Days  
Heating Degree Days 11 18  
Month to date heating degree days 28 36  
Since 1 July heating degree days 6510 6939  
Cooling Degree Days 0 0  
Month to date cooling degree days 0 0  
Year to date cooling degree days 0 0  
Growing Degree Days 4 (Base 50)    
Moisture  
Dew Point 20 °F    
Average Humidity 38    
Maximum Humidity 69    
Minimum Humidity 7    
Precipitation  
Precipitation 0.00 in 0.03 in 0.47 in (1991)
Month to date precipitation 0.00 0.07  
Year to date precipitation 3.21 3.40  
Snow  
Snow 0.00 in 0.20 in 3.00 in (1991)
Month to date snowfall 0.0 0.3  
Since 1 July snowfall 50.1 48.7  
Snow Depth 0.00 in    
Sea Level Pressure  
Sea Level Pressure 30.01 in    
Wind  
Wind Speed 8 mph (SSE)    
Max Wind Speed 17 mph    
Max Gust Speed 22 mph    
Visibility 10 miles    
Events      
T = Trace of Precipitation, MM = Missing Value Source: NWS Daily Summary

Daily Weather History Graph

Daily Weather History Graph

Search for Another Location

Airport or City:

Trip Planner

Search our weather history database for the weather conditions in past years. The results will help you decide how hot, cold, wet, or windy it might be!

Date:

Astronomy

May. 02, 2014 Rise Set
Actual Time 5:39 AM PDT 7:33 PM PDT
Civil Twilight 5:10 AM PDT 8:02 PM PDT
Nautical Twilight 4:35 AM PDT 8:38 PM PDT
Astronomical Twilight 3:57 AM PDT 9:16 PM PDT
Moon 8:20 AM PDT (5/2) 10:59 PM PDT (5/2)
Length of Visible Light 14h 52m
Length of Day
13h 54m
Waxing Crescent, 13% of the Moon is Illuminated
May 2
Waxing Crescent
May 6
First Quarter
May 14
Full
May 21
Last Quarter
May 28
New

Hourly Weather History & Observations

Time (PDT) Temp. Windchill Dew Point Humidity Pressure Visibility Wind Dir Wind Speed Gust Speed Precip Events Conditions
12:53 AM 37.9 °F 29.2 °F 23.0 °F 55% 30.12 in 10.0 mi SSE 15.0 mph - N/A   Clear
1:53 AM 34.0 °F 24.2 °F 24.1 °F 67% 30.11 in 10.0 mi South 15.0 mph - N/A   Clear
2:53 AM 37.9 °F 30.9 °F 23.0 °F 55% 30.09 in 10.0 mi South 10.4 mph - N/A   Clear
3:53 AM 33.1 °F 23.9 °F 23.0 °F 66% 30.11 in 10.0 mi SSE 12.7 mph - N/A   Clear
4:53 AM 32.0 °F 22.5 °F 23.0 °F 69% 30.10 in 10.0 mi South 12.7 mph - N/A   Clear
5:53 AM 30.9 °F 21.2 °F 21.9 °F 69% 30.12 in 10.0 mi SSE 12.7 mph - N/A   Clear
6:53 AM 36.0 °F 29.0 °F 25.0 °F 64% 30.12 in 10.0 mi South 9.2 mph - N/A   Clear
7:53 AM 50.0 °F - 28.0 °F 43% 30.13 in 10.0 mi South 9.2 mph - N/A   Clear
8:53 AM 60.1 °F - 24.1 °F 25% 30.11 in 10.0 mi South 8.1 mph - N/A   Clear
9:53 AM 66.0 °F - 18.0 °F 16% 30.08 in 10.0 mi ESE 3.5 mph - N/A   Clear
10:53 AM 69.1 °F - 16.0 °F 13% 30.06 in 10.0 mi Calm Calm - N/A   Clear
11:53 AM 73.0 °F - 16.0 °F 11% 30.01 in 10.0 mi Calm Calm - N/A   Clear
12:53 PM 73.0 °F - 16.0 °F 11% 30.00 in 10.0 mi ESE 6.9 mph - N/A   Clear
1:53 PM 73.9 °F - 15.1 °F 11% 29.99 in 10.0 mi South 4.6 mph - N/A   Clear
2:53 PM 75.0 °F - 16.0 °F 11% 29.95 in 10.0 mi Variable 6.9 mph - N/A   Clear
3:53 PM 77.0 °F - 15.1 °F 10% 29.94 in 10.0 mi Variable 5.8 mph - N/A   Clear
4:53 PM 75.0 °F - 9.0 °F 8% 29.94 in 10.0 mi Calm Calm - N/A   Clear
5:53 PM 75.0 °F - 10.0 °F 8% 29.93 in 10.0 mi Variable 3.5 mph - N/A   Clear
6:53 PM 72.0 °F - 14.0 °F 11% 29.92 in 10.0 mi NW 5.8 mph - N/A   Clear
7:53 PM 57.0 °F - 21.9 °F 26% 29.92 in 10.0 mi SSE 3.5 mph - N/A   Clear
8:53 PM 52.0 °F - 23.0 °F 32% 29.92 in 10.0 mi SSE 5.8 mph - N/A   Clear
9:53 PM 48.0 °F - 24.1 °F 39% 29.91 in 10.0 mi SSE 9.2 mph - N/A   Clear
10:53 PM 46.0 °F 40.6 °F 24.1 °F 42% 29.89 in 10.0 mi South 11.5 mph - N/A   Clear
11:53 PM 45.0 °F 38.5 °F 24.1 °F 44% 29.89 in 10.0 mi SSE 13.8 mph - N/A   Clear